Change the Weather History Date:

Friday, September 27, 2013

  Actual Average (KDFW) Record (KDFW)
Temperature  
Mean Temperature 77 °F 74 °F  
Max Temperature 88 °F 84 °F 103 °F (1953)
Min Temperature 67 °F 63 °F 40 °F (1942)
Degree Days  
Heating Degree Days 0 1  
Month to date heating degree days 1  
Since 1 July heating degree days 1  
Cooling Degree Days 12 9  
Month to date cooling degree days 369  
Year to date cooling degree days 2551  
Growing Degree Days 27 (Base 50)    
Moisture  
Dew Point 66 °F    
Average Humidity 66    
Maximum Humidity 80    
Minimum Humidity 56    
Precipitation  
Precipitation 0.00 in 0.08 in 2.98 in (1936)
Month to date precipitation 2.33  
Year to date precipitation 26.44  
Sea Level Pressure  
Sea Level Pressure 29.90 in    
Wind  
Wind Speed 8 mph (ESE)    
Max Wind Speed 15 mph    
Max Gust Speed 22 mph    
Visibility 10 miles    
Events      
T = Trace of Precipitation, MM = Missing Value Source: NWS Daily Summary

Daily Weather History Graph

Daily Weather History Graph

Search for Another Location

Airport or City:

Trip Planner

Search our weather history database for the weather conditions in past years. The results will help you decide how hot, cold, wet, or windy it might be!

Date:

Astronomy

Sep. 27, 2013 Rise Set
Actual Time 7:17 AM CDT 7:15 PM CDT
Civil Twilight 6:52 AM CDT 7:39 PM CDT
Nautical Twilight 6:24 AM CDT 8:08 PM CDT
Astronomical Twilight 5:55 AM CDT 8:37 PM CDT
Moon 12:31 AM CDT (9/27) 2:37 PM CDT (9/27)
Length of Visible Light 12h 47m
Length of Day
11h 57m
Last Quarter, 45% of the Moon is Illuminated
Sep 27
Last Quarter
Oct 4
New
Oct 11
First Quarter
Oct 18
Full
Oct 26
Last Quarter

Hourly Weather History & Observations

Time (CDT) Temp. Heat Index Dew Point Humidity Pressure Visibility Wind Dir Wind Speed Gust Speed Precip Events Conditions
12:15 AM 75.4 °F - 59.9 °F 58% 29.89 in 10.0 mi SE 5.8 mph - N/A   Clear
12:35 AM 75.2 °F - 59.4 °F 58% 29.88 in 10.0 mi ESE 5.8 mph - N/A   Clear
12:55 AM 74.8 °F - 59.2 °F 58% 29.89 in 10.0 mi ESE 5.8 mph - N/A   Clear
1:15 AM 74.5 °F - 59.2 °F 59% 29.89 in 10.0 mi ESE 6.9 mph - N/A   Clear
1:35 AM 74.3 °F - 59.2 °F 59% 29.89 in 10.0 mi ESE 6.9 mph - N/A   Clear
1:55 AM 74.3 °F - 59.2 °F 59% 29.89 in 10.0 mi ESE 6.9 mph - N/A   Clear
2:15 AM 72.9 °F - 59.4 °F 62% 29.90 in 10.0 mi ESE 5.8 mph - N/A   Clear
2:35 AM 72.3 °F - 59.4 °F 64% 29.90 in 10.0 mi ESE 5.8 mph - N/A   Clear
2:55 AM 71.8 °F - 59.5 °F 65% 29.90 in 10.0 mi ESE 5.8 mph - N/A   Clear
3:15 AM 71.1 °F - 59.7 °F 67% 29.90 in 10.0 mi ESE 5.8 mph - N/A   Clear
3:35 AM 70.7 °F - 59.9 °F 69% 29.90 in 10.0 mi ESE 4.6 mph - N/A   Clear
3:55 AM 70.5 °F - 59.9 °F 69% 29.90 in 10.0 mi ESE 5.8 mph - N/A   Clear
4:15 AM 70.9 °F - 60.1 °F 69% 29.90 in 10.0 mi ESE 5.8 mph - N/A   Clear
4:35 AM 70.9 °F - 60.3 °F 69% 29.90 in 10.0 mi ESE 5.8 mph - N/A   Clear
4:55 AM 70.3 °F - 60.3 °F 70% 29.90 in 10.0 mi SE 5.8 mph - N/A   Clear
5:15 AM 68.9 °F - 60.3 °F 74% 29.90 in 10.0 mi East 4.6 mph - N/A   Clear
5:35 AM 68.4 °F - 60.3 °F 75% 29.91 in 10.0 mi East 4.6 mph - N/A   Clear
5:55 AM 67.8 °F - 60.4 °F 77% 29.91 in 10.0 mi East 5.8 mph - N/A   Clear
6:15 AM 67.5 °F - 60.8 °F 79% 29.92 in 10.0 mi East 4.6 mph - N/A   Clear
6:35 AM 67.5 °F - 60.8 °F 79% 29.92 in 10.0 mi East 5.8 mph - N/A   Clear
6:55 AM 67.3 °F - 60.8 °F 80% 29.93 in 10.0 mi East 4.6 mph - N/A   Clear
7:15 AM 67.3 °F - 60.8 °F 80% 29.93 in 10.0 mi East 5.8 mph - N/A   Clear
7:35 AM 67.5 °F - 61.0 °F 80% 29.93 in 10.0 mi East 6.9 mph - N/A   Clear
7:55 AM 68.4 °F - 61.5 °F 79% 29.93 in 10.0 mi East 5.8 mph - N/A   Clear
8:15 AM 69.8 °F - 61.9 °F 76% 29.94 in 10.0 mi East 6.9 mph - N/A   Clear
8:35 AM 70.7 °F - 62.2 °F 75% 29.94 in 10.0 mi East 6.9 mph - N/A   Scattered Clouds
8:55 AM 72.0 °F - 63.5 °F 75% 29.95 in 10.0 mi East 6.9 mph - N/A   Scattered Clouds
9:15 AM 73.9 °F - 64.9 °F 73% 29.95 in 10.0 mi East 6.9 mph - N/A   Overcast
9:35 AM 75.6 °F - 65.5 °F 71% 29.95 in 10.0 mi East 6.9 mph - N/A   Overcast
9:55 AM 77.4 °F - 67.1 °F 71% 29.95 in 10.0 mi SE 9.2 mph - N/A   Overcast
10:15 AM 80.1 °F 83.0 °F 69.6 °F 70% 29.95 in 10.0 mi SE 9.2 mph - N/A   Mostly Cloudy
10:35 AM 81.5 °F 84.8 °F 69.3 °F 66% 29.95 in 10.0 mi ESE 10.4 mph - N/A   Scattered Clouds
10:55 AM 82.0 °F 85.9 °F 70.0 °F 67% 29.95 in 10.0 mi SE 13.8 mph 19.6 mph N/A   Scattered Clouds
11:15 AM 83.3 °F 87.4 °F 70.0 °F 64% 29.95 in 10.0 mi SE 13.8 mph - N/A   Mostly Cloudy
11:35 AM 83.5 °F 87.7 °F 70.3 °F 64% 29.94 in 10.0 mi SE 10.4 mph - N/A   Mostly Cloudy
11:55 AM 83.3 °F 87.6 °F 70.3 °F 65% 29.94 in 10.0 mi East 6.9 mph - N/A   Overcast
12:15 PM 85.6 °F 90.4 °F 70.5 °F 60% 29.93 in 10.0 mi ESE 10.4 mph 19.6 mph N/A   Mostly Cloudy
12:35 PM 85.6 °F 90.4 °F 70.5 °F 60% 29.93 in 10.0 mi ESE 11.5 mph 18.4 mph N/A   Mostly Cloudy
12:55 PM 86.7 °F 91.7 °F 70.2 °F 58% 29.92 in 10.0 mi SE 15.0 mph 20.7 mph N/A   Mostly Cloudy
1:15 PM 85.3 °F 89.8 °F 70.0 °F 60% 29.92 in 10.0 mi ESE 11.5 mph 18.4 mph N/A   Mostly Cloudy
1:35 PM 85.1 °F 89.4 °F 69.6 °F 60% 29.91 in 10.0 mi SE 11.5 mph 17.3 mph N/A   Overcast
1:55 PM 85.6 °F 89.7 °F 69.4 °F 58% 29.91 in 10.0 mi SE 13.8 mph 19.6 mph N/A   Overcast
2:15 PM 83.8 °F 88.1 °F 69.8 °F 63% 29.90 in 10.0 mi SE 9.2 mph - N/A   Overcast
2:35 PM 87.8 °F 93.0 °F 70.2 °F 56% 29.89 in 10.0 mi SE 10.4 mph 19.6 mph N/A   Mostly Cloudy
2:55 PM 87.8 °F 93.4 °F 70.7 °F 57% 29.88 in 10.0 mi SE 12.7 mph 20.7 mph N/A   Overcast
3:15 PM 86.4 °F 91.1 °F 70.2 °F 58% 29.87 in 10.0 mi SE 13.8 mph 17.3 mph N/A   Overcast
3:35 PM 84.7 °F 89.1 °F 69.8 °F 61% 29.87 in 10.0 mi SE 15.0 mph 21.9 mph N/A   Overcast
3:55 PM 85.8 °F 90.8 °F 70.7 °F 60% 29.87 in 10.0 mi ESE 8.1 mph 18.4 mph N/A   Overcast
4:15 PM 86.4 °F 91.8 °F 70.9 °F 60% 29.87 in 10.0 mi ESE 11.5 mph 17.3 mph N/A   Overcast
4:35 PM 86.5 °F 91.8 °F 70.7 °F 59% 29.87 in 10.0 mi ESE 11.5 mph 17.3 mph N/A   Mostly Cloudy
4:55 PM 86.0 °F 90.7 °F 70.2 °F 59% 29.87 in 10.0 mi ESE 10.4 mph - N/A   Overcast
5:15 PM 86.0 °F 91.1 °F 70.5 °F 60% 29.87 in 10.0 mi ESE 9.2 mph 16.1 mph N/A   Overcast
5:35 PM 86.2 °F 91.1 °F 70.3 °F 59% 29.86 in 10.0 mi ESE 10.4 mph 16.1 mph N/A   Overcast
5:55 PM 85.8 °F 90.4 °F 70.2 °F 59% 29.86 in 10.0 mi East 10.4 mph 16.1 mph N/A   Overcast
6:15 PM 85.8 °F 90.4 °F 69.8 °F 59% 29.86 in 10.0 mi East 12.7 mph 17.3 mph N/A   Mostly Cloudy
6:35 PM 84.7 °F 89.1 °F 69.8 °F 61% 29.86 in 10.0 mi East 9.2 mph - N/A   Mostly Cloudy
6:55 PM 84.6 °F 88.8 °F 70.0 °F 61% 29.86 in 10.0 mi East 10.4 mph - N/A   Overcast
7:15 PM 83.8 °F 88.1 °F 69.8 °F 63% 29.86 in 10.0 mi East 6.9 mph - N/A   Overcast
7:35 PM 82.9 °F 86.5 °F 69.3 °F 63% 29.86 in 10.0 mi East 6.9 mph - N/A   Mostly Cloudy
7:55 PM 82.4 °F 85.8 °F 68.9 °F 64% 29.85 in 10.0 mi East 6.9 mph - N/A   Clear
8:15 PM 81.7 °F 84.9 °F 68.7 °F 65% 29.86 in 10.0 mi East 8.1 mph - N/A   Clear
8:35 PM 80.8 °F 83.6 °F 68.5 °F 66% 29.86 in 10.0 mi East 8.1 mph - N/A   Clear
8:55 PM 80.4 °F 83.0 °F 67.8 °F 65% 29.86 in 10.0 mi East 10.4 mph - N/A   Clear
9:15 PM 80.2 °F 82.7 °F 67.5 °F 65% 29.87 in 10.0 mi East 8.1 mph - N/A   Clear
9:35 PM 79.9 °F - 67.3 °F 65% 29.87 in 10.0 mi East 10.4 mph - N/A   Scattered Clouds
9:55 PM 79.7 °F - 67.6 °F 66% 29.87 in 10.0 mi East 10.4 mph - N/A   Scattered Clouds
10:15 PM 79.9 °F - 68.0 °F 67% 29.87 in 10.0 mi East 10.4 mph - N/A   Clear
10:35 PM 79.9 °F - 68.2 °F 67% 29.88 in 10.0 mi East 9.2 mph - N/A   Scattered Clouds
10:55 PM 80.2 °F 83.0 °F 68.2 °F 67% 29.88 in 10.0 mi East 10.4 mph 18.4 mph N/A   Mostly Cloudy
11:15 PM 79.9 °F - 68.2 °F 67% 29.89 in 10.0 mi ESE 10.4 mph - N/A   Scattered Clouds
11:35 PM 79.2 °F - 68.4 °F 69% 29.89 in 10.0 mi ESE 9.2 mph - N/A   Scattered Clouds
11:55 PM 79.2 °F - 68.4 °F 69% 29.90 in 10.0 mi ESE 5.8 mph - N/A   Mostly Cloudy